Weather History for Belfast Harbour, United Kingdom

Change the Weather History Date:

Monday, April 1, 2013

  Actual Average Record
Temperature  
Mean Temperature 38 °F -  
Max Temperature 41 °F 51 °F 60 °F (1999)
Min Temperature 35 °F 40 °F 35 °F (2012)
Degree Days  
Heating Degree Days 27    
Moisture  
Dew Point 25 °F    
Average Humidity 59    
Maximum Humidity 70    
Minimum Humidity 53    
Precipitation  
Precipitation 0.00 in - - ()
Sea Level Pressure  
Sea Level Pressure 29.94 in    
Wind  
Wind Speed 12 mph ()    
Max Wind Speed 17 mph    
Max Gust Speed 25 mph    
Visibility 6.2 miles    
Events      
Averages and records for this station are not official NWS values.
T = Trace of Precipitation, MM = Missing Value Source: Averaged Metar Reports

Daily Weather History Graph

Daily Weather History Graph

Search for Another Location

Airport:

Trip Planner

Search our weather history database for the weather conditions in past years. The results will help you decide how hot, cold, wet, or windy it might be!

Date:

Astronomy

Apr. 01, 2013 Rise Set
Actual Time 6:55 AM IST 8:00 PM IST
Civil Twilight 6:18 AM IST 8:37 PM IST
Nautical Twilight 5:34 AM IST 9:21 PM IST
Astronomical Twilight 4:45 AM IST 10:10 PM IST
Moon 1:37 AM IST (4/1) 9:44 AM IST (4/1)
Length of Visible Light 14h 18m
Length of Day
13h 04m
Waning Gibbous, 69% of the Moon is Illuminated
Apr 1
Waning Gibbous
Apr 3
Last Quarter
Apr 10
New
Apr 18
First Quarter
Apr 25
Full

Hourly Weather History & Observations

Time (IST) Temp. Windchill Dew Point Humidity Pressure Visibility Wind Dir Wind Speed Gust Speed Precip Events Conditions
6:20 AM 35.6 °F 26.6 °F 26.6 °F 70% 29.92 in 6.2 mi ESE 13.8 mph - N/A   Mostly Cloudy
6:50 AM 37.4 °F 28.9 °F 24.8 °F 60% 29.92 in 6.2 mi ESE 13.8 mph 25.3 mph N/A   Mostly Cloudy
7:20 AM 35.6 °F 26.2 °F 24.8 °F 65% 29.92 in 6.2 mi ESE 15.0 mph - N/A   Mostly Cloudy
7:50 AM 37.4 °F 28.9 °F 24.8 °F 60% 29.92 in 6.2 mi ESE 13.8 mph - N/A   Mostly Cloudy
8:20 AM 35.6 °F 26.2 °F 26.6 °F 70% 29.92 in 6.2 mi ESE 15.0 mph - N/A   Mostly Cloudy
8:50 AM 37.4 °F 28.5 °F 24.8 °F 60% 29.92 in 6.2 mi ESE 15.0 mph - N/A   Mostly Cloudy
9:20 AM 37.4 °F 30.3 °F 24.8 °F 60% 29.92 in 6.2 mi ESE 10.4 mph - N/A   Mostly Cloudy
9:50 AM 37.4 °F 29.8 °F 24.8 °F 60% 29.95 in 6.2 mi ESE 11.5 mph - N/A   Mostly Cloudy
10:20 AM 37.4 °F 29.8 °F 26.6 °F 65% 29.95 in 6.2 mi ESE 11.5 mph 23.0 mph N/A   Mostly Cloudy
10:50 AM 37.4 °F 28.5 °F 26.6 °F 65% 29.95 in 6.2 mi East 15.0 mph - N/A   Mostly Cloudy
11:20 AM 37.4 °F 28.9 °F 24.8 °F 60% 29.95 in 6.2 mi ESE 13.8 mph - N/A   Mostly Cloudy
11:50 AM 39.2 °F 30.8 °F 24.8 °F 56% 29.95 in 6.2 mi ESE 15.0 mph - N/A   Mostly Cloudy
12:20 PM 39.2 °F 31.6 °F 24.8 °F 56% 29.95 in 6.2 mi ESE 12.7 mph - N/A   Mostly Cloudy
12:50 PM 39.2 °F 30.5 °F 26.6 °F 61% 29.95 in 6.2 mi ESE 16.1 mph - N/A   Mostly Cloudy
1:20 PM 39.2 °F 30.2 °F 24.8 °F 56% 29.95 in 6.2 mi ESE 17.3 mph - N/A   Mostly Cloudy
1:50 PM 39.2 °F 30.8 °F 24.8 °F 56% 29.95 in 6.2 mi ESE 15.0 mph - N/A   Mostly Cloudy
2:20 PM 39.2 °F 30.2 °F 26.6 °F 61% 29.95 in 6.2 mi ESE 17.3 mph - N/A   Mostly Cloudy
2:50 PM 39.2 °F 30.8 °F 26.6 °F 61% 29.95 in 6.2 mi ESE 15.0 mph - N/A   Mostly Cloudy
3:20 PM 39.2 °F 30.5 °F 24.8 °F 56% 29.95 in 6.2 mi ESE 16.1 mph - N/A   Mostly Cloudy
3:50 PM 39.2 °F 30.8 °F 24.8 °F 56% 29.95 in 6.2 mi ESE 15.0 mph - N/A   Mostly Cloudy
4:20 PM 41.0 °F 32.5 °F 24.8 °F 53% 29.95 in 6.2 mi ESE 17.3 mph - N/A   Scattered Clouds
4:50 PM 41.0 °F 33.1 °F 24.8 °F 53% 29.95 in 6.2 mi ESE 15.0 mph - N/A   Scattered Clouds
5:20 PM 41.0 °F 33.9 °F 24.8 °F 53% 29.95 in 6.2 mi ESE 12.7 mph - N/A   Scattered Clouds
5:50 PM 41.0 °F 33.1 °F 24.8 °F 53% 29.95 in 6.2 mi ESE 15.0 mph - N/A   Scattered Clouds
6:20 PM 41.0 °F 33.5 °F 24.8 °F 53% 29.95 in 6.2 mi East 13.8 mph - N/A   Scattered Clouds
6:50 PM 41.0 °F 33.9 °F 24.8 °F 53% 29.95 in 6.2 mi East 12.7 mph - N/A   Scattered Clouds
7:20 PM 41.0 °F 34.3 °F 24.8 °F 53% 29.95 in 6.2 mi ESE 11.5 mph - N/A   Partly Cloudy
7:50 PM 39.2 °F 33.6 °F 26.6 °F 61% 29.95 in 6.2 mi East 8.1 mph - N/A   Partly Cloudy
8:20 PM 39.2 °F 33.0 °F 26.6 °F 61% 29.98 in 6.2 mi East 9.2 mph - N/A   Partly Cloudy
8:50 PM 39.2 °F 34.2 °F 26.6 °F 61% 29.98 in 6.2 mi East 6.9 mph - N/A   Scattered Clouds